Brownsville, TX

6:16 PM CDT on July 20, 2017 (GMT -0500)
Brownsville-South Padre I International

Weather History for KBRO - September, 2012

Change the Weather History Date:

Monday, September 24, 2012

  Actual Average Record
Temperature  
Mean Temperature 82 °F 80 °F  
Max Temperature 92 °F 89 °F 104 °F (2005)
Min Temperature 71 °F 72 °F 56 °F (1975)
Degree Days  
Heating Degree Days 0 0  
Month to date heating degree days 0 0  
Since 1 July heating degree days 0 0  
Cooling Degree Days 17 15  
Month to date cooling degree days 448 415  
Year to date cooling degree days 3901 3322  
Growing Degree Days 31 (Base 50)    
Moisture  
Dew Point 71 °F    
Average Humidity 74    
Maximum Humidity 100    
Minimum Humidity 47    
Precipitation  
Precipitation T in 0.19 in 4.21 in (1949)
Month to date precipitation 0.97 4.72  
Year to date precipitation 17.33 19.53  
Sea Level Pressure  
Sea Level Pressure 30.06 in    
Wind  
Wind Speed 7 mph (East)    
Max Wind Speed 15 mph    
Max Gust Speed 21 mph    
Visibility 10 miles    
Events      
T = Trace of Precipitation, MM = Missing Value Source: NWS Daily Summary

Daily Weather History Graph

Daily Weather History Graph

Search for Another Location

Airport or City:

Trip Planner

Search our weather history database for the weather conditions in past years. The results will help you decide how hot, cold, wet, or windy it might be!

Date:

Astronomy

Sep. 24, 2012 Rise Set
Actual Time 7:19 AM CDT 7:23 PM CDT
Civil Twilight 6:56 AM CDT 7:46 PM CDT
Nautical Twilight 6:29 AM CDT 8:12 PM CDT
Astronomical Twilight 6:02 AM CDT 8:39 PM CDT
Moon 3:44 PM CDT (9/24) 2:05 AM CDT (9/24)
Length of Visible Light 12h 49m
Length of Day
12h 03m
Waxing Gibbous, 71% of the Moon is Illuminated
Sep 24
Waxing Gibbous
Sep 29
Full
Oct 8
Last Quarter
Oct 15
New
Oct 21
First Quarter

Hourly Weather History & Observations

Time (CDT) Temp. Heat Index Dew Point Humidity Pressure Visibility Wind Dir Wind Speed Gust Speed Precip Events Conditions
12:53 AM 73.9 °F - 72.0 °F 93% 30.10 in 10.0 mi NNW 4.6 mph - N/A   Clear
1:53 AM 73.9 °F - 72.0 °F 93% 30.09 in 10.0 mi WNW 3.5 mph - N/A   Clear
2:53 AM 73.9 °F - 72.0 °F 93% 30.09 in 10.0 mi NW 3.5 mph - N/A   Clear
3:53 AM 73.0 °F - 71.1 °F 93% 30.07 in 10.0 mi NNW 4.6 mph - N/A   Partly Cloudy
4:53 AM 73.0 °F - 71.1 °F 93% 30.07 in 10.0 mi NW 3.5 mph - N/A   Clear
5:53 AM 72.0 °F - 71.1 °F 97% 30.08 in 10.0 mi Calm Calm - N/A   Clear
6:53 AM 73.0 °F - 72.0 °F 96% 30.07 in 10.0 mi North 3.5 mph - N/A   Clear
7:53 AM 73.9 °F - 72.0 °F 93% 30.09 in 10.0 mi North 4.6 mph - N/A   Clear
8:53 AM 80.1 °F 85.1 °F 75.0 °F 85% 30.11 in 10.0 mi Calm Calm - N/A   Clear
9:53 AM 82.9 °F 89.4 °F 73.9 °F 74% 30.12 in 10.0 mi SE 4.6 mph - 0.00 in   Scattered Clouds
10:53 AM 87.1 °F 92.0 °F 70.0 °F 57% 30.12 in 10.0 mi East 5.8 mph - N/A   Partly Cloudy
11:53 AM 89.1 °F 95.0 °F 71.1 °F 55% 30.12 in 10.0 mi East 8.1 mph - N/A   Scattered Clouds
12:53 PM 89.1 °F 93.7 °F 69.1 °F 52% 30.10 in 10.0 mi ESE 12.7 mph 16.1 mph N/A   Partly Cloudy
1:53 PM 91.0 °F 95.6 °F 69.1 °F 48% 30.06 in 10.0 mi SE 11.5 mph 16.1 mph N/A   Clear
2:53 PM 91.0 °F 95.2 °F 68.0 °F 47% 30.03 in 10.0 mi East 10.4 mph - N/A   Clear
3:53 PM 91.0 °F 95.6 °F 69.1 °F 48% 30.00 in 10.0 mi ESE 11.5 mph 18.4 mph N/A   Clear
4:53 PM 89.1 °F 94.1 °F 70.0 °F 53% 30.00 in 10.0 mi East 13.8 mph - N/A   Partly Cloudy
5:53 PM 87.1 °F 92.0 °F 70.0 °F 57% 30.00 in 10.0 mi ESE 11.5 mph 17.3 mph N/A   Partly Cloudy
6:53 PM 84.0 °F 89.0 °F 71.1 °F 65% 30.01 in 10.0 mi East 11.5 mph - N/A   Clear
7:53 PM 82.0 °F 86.3 °F 71.1 °F 69% 30.01 in 10.0 mi East 8.1 mph - N/A   Clear
8:53 PM 79.0 °F - 71.1 °F 77% 30.02 in 10.0 mi East 5.8 mph - N/A   Clear
9:53 PM 79.0 °F - 71.1 °F 77% 30.05 in 10.0 mi ESE 6.9 mph - N/A   Clear
10:53 PM 79.0 °F - 72.0 °F 79% 30.06 in 10.0 mi ESE 5.8 mph - N/A   Clear
11:53 PM 78.1 °F - 72.0 °F 81% 30.04 in 10.0 mi ESE 4.6 mph - N/A   Clear